Location: ?????
(37.7324°N, 23.9257°E)
Time: 07:28:12
(UTC+00:00)

PSLV R/B - Pass Details

Date: 29 November 2020
Orbit: 502 x 579 km, 97.8° (Epoch: 17 January)

Event Time Altitude Azimuth Distance (km) Brightness Sun altitude
Rises 03:58:31 0° 15° (NNE) 2,693 7.3 -15.7°
Reaches altitude 10° 04:00:41 10° 19° (NNE) 1,784 6.5 -15.3°
Maximum altitude 04:04:30 64° 101° (E) 583 4.2 -14.5°
Drops below altitude 10° 04:08:12 10° 183° (S) 1,732 6.5 -13.8°
Sets 04:10:16 0° 187° (S) 2,604 7.4 -13.4°
